Location: Newark
(7.0858°N, 171.3717°E)
Time: 07:30:21
(UTC+00:00)

S-56A Canister/Altair - Pass Details

Date: 05 December 2020
Orbit: 633 x 2499 km, 38.9° (Epoch: 27 January)

Event Time Altitude Azimuth Distance (km) Brightness Sun altitude
Rises 12:39:08 0° 324° (NW) 3,895 - -74.3°
Reaches altitude 10° 12:42:40 10° 336° (NNW) 2,648 - -74.1°
Maximum altitude 12:47:35 26° 32° (NNE) 1,478 - -73.7°
Drops below altitude 10° 12:51:34 10° 89° (E) 2,103 - -73.4°
Sets 12:54:01 0° 103° (ESE) 2,939 - -73.1°
